Mars — XPC8385 — position and weather

sailwx.info

Track history (hours):
 
Tides and Currents Weather Stations Pressure Air Temp Water Temp Dewpoint Dewpoint Depression Visibility Wind Speed Wind Dir Waves Ship Positions

Mars

Last reported at 2014-Jul-24 18:29 UTC. Time now 2014-Jul-24 21:43 UTC.
Position N 55°16' E 014°49'.

Length 14 m; draft 1.7 m.

Type: Pilot. MMSI: 219001058.

Date/timePositionNaut miles runAvg speedWind from/ knotsBaromVisibWave heightAir tempDewpointWater temp
2014-Jul-24 18:29N 55°16' E 014°49'1 1.2
2014-Jul-24 17:33N 55°17' E 014°48'1 0.2
2014-Jul-24 11:18N 55°16' E 014°49'2 0.6
2014-Jul-24 07:21N 55°17' E 014°45'0 0.0
2014-Jul-24 06:24N 55°17' E 014°45'0 0.0
2014-Jul-24 05:33N 55°17' E 014°45'0 0.0
2014-Jul-24 04:33N 55°17' E 014°45'0 0.0
2014-Jul-24 03:30N 55°17' E 014°45'0 0.0
2014-Jul-24 02:30N 55°17' E 014°45'0 0.0
2014-Jul-24 01:33N 55°17' E 014°45'0 0.0
2014-Jul-24 00:33N 55°17' E 014°45'0 0.0
2014-Jul-23 23:33N 55°17' E 014°45'0 0.1
2014-Jul-23 22:34N 55°17' E 014°45'0 0.0
2014-Jul-23 20:31N 55°17' E 014°45'0 0.0
2014-Jul-23 19:09N 55°17' E 014°45'0 0.0
2014-Jul-23 08:18N 55°17' E 014°45'0 0.0
2014-Jul-23 00:07N 55°17' E 014°45'0 0.0
2014-Jul-22 22:25N 55°17' E 014°45'1 0.2
2014-Jul-22 19:04N 55°16' E 014°44'2 1.5
2014-Jul-22 17:30N 55°18' E 014°41'2 0.8
2014-Jul-22 15:12N 55°17' E 014°43'1 0.1
2014-Jul-22 06:21N 55°17' E 014°45'0 0.0
2014-Jul-22 00:12N 55°17' E 014°45'0 0.0
2014-Jul-21 22:24N 55°17' E 014°45'0 0.0
2014-Jul-21 21:30N 55°17' E 014°45'2 0.7
2014-Jul-21 18:30N 55°17' E 014°42'2 0.2
2014-Jul-21 05:32N 55°17' E 014°45'0 0.0
2014-Jul-21 04:29N 55°17' E 014°45'0 0.0
2014-Jul-21 03:18N 55°17' E 014°45'0 0.0
2014-Jul-21 02:30N 55°17' E 014°45'0 0.0
2014-Jul-21 01:30N 55°17' E 014°45'0 0.0
2014-Jul-21 00:30N 55°17' E 014°45'0 0.0
2014-Jul-20 23:33N 55°17' E 014°45'0 0.1
2014-Jul-20 21:27N 55°17' E 014°45'0 0.3
2014-Jul-20 20:32N 55°17' E 014°45'1 0.7
2014-Jul-20 19:33N 55°16' E 014°44'1 0.6
2014-Jul-20 18:26N 55°17' E 014°45'2 1.5
2014-Jul-20 17:21N 55°17' E 014°48'0 0.0
2014-Jul-20 16:27N 55°17' E 014°48'0 0.0
2014-Jul-20 15:27N 55°17' E 014°48'0 0.0
2014-Jul-20 14:33N 55°17' E 014°48'0 0.0
2014-Jul-20 13:27N 55°17' E 014°48'0 0.0
2014-Jul-20 12:33N 55°17' E 014°48'0 0.0
2014-Jul-20 11:21N 55°17' E 014°48'4 3.9
2014-Jul-20 10:24N 55°20' E 014°47'4 4.3
2014-Jul-20 09:32N 55°17' E 014°48'0 0.0
2014-Jul-20 08:32N 55°17' E 014°48'0 0.0
2014-Jul-20 07:26N 55°17' E 014°48'0 0.0
2014-Jul-20 05:20N 55°17' E 014°48'0 0.0
2014-Jul-20 04:26N 55°17' E 014°48'0 0.0
2014-Jul-20 03:26N 55°17' E 014°48'0 0.0
2014-Jul-20 02:32N 55°17' E 014°48'0 0.0
2014-Jul-20 01:32N 55°17' E 014°48'0 0.0
2014-Jul-20 00:32N 55°17' E 014°48'0 0.0
2014-Jul-19 23:32N 55°17' E 014°48'0 0.0
2014-Jul-19 22:26N 55°17' E 014°48'0 0.0
2014-Jul-19 21:32N 55°17' E 014°48'0 0.0
2014-Jul-19 20:32N 55°17' E 014°48'0 0.0
2014-Jul-19 19:26N 55°17' E 014°48'0 0.0
2014-Jul-19 18:32N 55°17' E 014°48'0 0.0
2014-Jul-19 17:21N 55°17' E 014°48'1 1.6
2014-Jul-19 16:33N 55°18' E 014°47'2 2.5
2014-Jul-19 15:33N 55°20' E 014°48'4 3.2
2014-Jul-19 14:25N 55°17' E 014°48'0 0.0
2014-Jul-19 13:25N 55°17' E 014°48'0 0.0
2014-Jul-19 12:31N 55°17' E 014°48'0 0.0
2014-Jul-19 11:31N 55°17' E 014°48'0 0.0
2014-Jul-19 10:31N 55°17' E 014°48'0 0.0
2014-Jul-19 09:31N 55°17' E 014°48'0 0.0
2014-Jul-19 08:31N 55°17' E 014°48'0 0.0
2014-Jul-19 07:25N 55°17' E 014°48'0 0.0
2014-Jul-19 06:31N 55°17' E 014°48'0 0.0
2014-Jul-19 05:31N 55°17' E 014°48'0 0.0
2014-Jul-19 04:31N 55°17' E 014°48'0 0.0
2014-Jul-19 03:31N 55°17' E 014°48'0 0.0
2014-Jul-19 02:31N 55°17' E 014°48'0 0.0
2014-Jul-19 01:31N 55°17' E 014°48'0 0.0
2014-Jul-19 00:31N 55°17' E 014°48'0 0.0
2014-Jul-18 23:31N 55°17' E 014°48'0 0.0
2014-Jul-18 22:31N 55°17' E 014°48'0 0.0
2014-Jul-18 21:31N 55°17' E 014°48'0 0.0
2014-Jul-18 20:25N 55°17' E 014°48'0 0.0
2014-Jul-18 19:31N 55°17' E 014°48'0 0.0
2014-Jul-18 18:13N 55°17' E 014°48'0 0.0
2014-Jul-18 17:31N 55°17' E 014°48'0 0.0
2014-Jul-18 16:31N 55°17' E 014°48'0 0.0
2014-Jul-18 15:30N 55°17' E 014°48'0 0.0
2014-Jul-18 14:30N 55°17' E 014°48'0 0.0
2014-Jul-18 13:30N 55°17' E 014°48'0 0.0
2014-Jul-18 12:30N 55°17' E 014°48'0 0.0
2014-Jul-18 11:30N 55°17' E 014°48'0 0.0
2014-Jul-18 10:30N 55°17' E 014°48'1 1.3
2014-Jul-18 09:31N 55°18' E 014°48'1 1.3
2014-Jul-18 08:33N 55°17' E 014°48'0 0.0
2014-Jul-18 07:33N 55°17' E 014°48'0 0.0
2014-Jul-18 06:33N 55°17' E 014°48'0 0.0
2014-Jul-18 05:33N 55°17' E 014°48'0 0.0
2014-Jul-18 04:32N 55°17' E 014°48'0 0.0
2014-Jul-18 03:26N 55°17' E 014°48'0 0.0
2014-Jul-18 02:32N 55°17' E 014°48'0 0.0
2014-Jul-18 01:32N 55°17' E 014°48'0 0.0
2014-Jul-18 00:20N 55°17' E 014°48'0 0.0
2014-Jul-17 23:32N 55°17' E 014°48'0 0.0
2014-Jul-17 22:32N 55°17' E 014°48'0 0.0
2014-Jul-17 21:32N 55°17' E 014°48'0 0.0
2014-Jul-17 20:32N 55°17' E 014°48'0 0.0
2014-Jul-17 19:26N 55°17' E 014°48'0 0.0
2014-Jul-17 18:26N 55°17' E 014°48'0 0.0
2014-Jul-17 17:28N 55°17' E 014°48'0 0.0
2014-Jul-17 16:22N 55°17' E 014°48'0 0.0
2014-Jul-17 15:28N 55°17' E 014°48'0 0.0
2014-Jul-17 14:34N 55°17' E 014°48'0 0.0
2014-Jul-17 13:34N 55°17' E 014°48'0 0.0
2014-Jul-17 12:31N 55°17' E 014°48'0 0.0
2014-Jul-17 11:25N 55°17' E 014°48'0 0.0
2014-Jul-17 10:31N 55°17' E 014°48'0 0.0
2014-Jul-17 09:25N 55°17' E 014°48'0 0.0
2014-Jul-17 08:31N 55°17' E 014°48'0 0.0
2014-Jul-17 07:25N 55°17' E 014°48'0 0.3
2014-Jul-17 06:33N 55°17' E 014°48'0 0.3
2014-Jul-17 05:33N 55°17' E 014°48'0 0.0
2014-Jul-17 04:33N 55°17' E 014°48'0 0.0
2014-Jul-17 03:33N 55°17' E 014°48'0 0.0
2014-Jul-17 02:09N 55°17' E 014°48'0 0.0
2014-Jul-17 01:33N 55°17' E 014°48'0 0.0
2014-Jul-17 00:15N 55°17' E 014°48'0 0.0
2014-Jul-16 23:33N 55°17' E 014°48'0 0.0
2014-Jul-16 22:33N 55°17' E 014°48'0 0.0
2014-Jul-16 21:33N 55°17' E 014°48'0 0.0
2014-Jul-16 20:33N 55°17' E 014°48'0 0.0
2014-Jul-16 19:31N 55°17' E 014°48'0 0.0
2014-Jul-16 18:31N 55°17' E 014°48'0 0.0
2014-Jul-16 17:13N 55°17' E 014°48'0 0.0
2014-Jul-16 15:31N 55°17' E 014°48'0 0.0
2014-Jul-16 14:31N 55°17' E 014°48'0 0.0
2014-Jul-16 13:25N 55°17' E 014°48'0 0.0
2014-Jul-16 12:19N 55°17' E 014°48'0 0.0
2014-Jul-16 11:19N 55°17' E 014°48'0 0.0
2014-Jul-16 10:31N 55°17' E 014°48'0 0.0
2014-Jul-16 09:31N 55°17' E 014°48'0 0.0
2014-Jul-16 08:31N 55°17' E 014°48'0 0.0
2014-Jul-16 07:25N 55°17' E 014°48'0 0.0
2014-Jul-16 05:25N 55°17' E 014°48'0 0.0
2014-Jul-16 04:31N 55°17' E 014°48'0 0.0
2014-Jul-16 03:25N 55°17' E 014°48'0 0.0
2014-Jul-16 02:31N 55°17' E 014°48'4 3.7
2014-Jul-16 01:34N 55°19' E 014°53'4 3.6
2014-Jul-16 00:33N 55°17' E 014°48'0 0.0
2014-Jul-15 23:33N 55°17' E 014°48'0 0.0
2014-Jul-15 22:32N 55°17' E 014°48'0 0.0
2014-Jul-15 21:23N 55°17' E 014°48'0 0.0
2014-Jul-15 20:29N 55°17' E 014°48'0 0.0
2014-Jul-15 19:29N 55°17' E 014°48'0 0.0
2014-Jul-15 18:29N 55°17' E 014°48'0 0.0
2014-Jul-15 17:29N 55°17' E 014°48'0 0.0
2014-Jul-15 16:17N 55°17' E 014°48'0 0.0
2014-Jul-15 14:29N 55°17' E 014°48'0 0.0
2014-Jul-15 13:23N 55°17' E 014°48'0 0.0
2014-Jul-15 12:29N 55°17' E 014°48'0 0.0
2014-Jul-15 11:29N 55°17' E 014°48'0 0.0
2014-Jul-15 10:23N 55°17' E 014°48'0 0.0
2014-Jul-15 09:23N 55°17' E 014°48'0 0.0
2014-Jul-15 08:23N 55°17' E 014°48'0 0.0
2014-Jul-15 07:29N 55°17' E 014°48'0 0.0
2014-Jul-15 06:17N 55°17' E 014°48'0 0.0
2014-Jul-15 04:29N 55°17' E 014°48'0 0.0
2014-Jul-15 03:23N 55°17' E 014°48'  
Track history (hours):
 
Tides and Currents Weather Stations Pressure Air Temp Water Temp Dewpoint Dewpoint Depression Visibility Wind Speed Wind Dir Waves Ship Positions

Mars

Last reported at 2014-Jul-24 18:29 UTC. Time now 2014-Jul-24 21:43 UTC.
Position N 55°16' E 014°49'.

Length 14 m; draft 1.7 m.

Type: Pilot. MMSI: 219001058.

Date/timePositionNaut miles runAvg speedWind from/ knotsBaromVisibWave heightAir tempDewpointWater temp
2014-Jul-24 18:29N 55°16' E 014°49'1 1.2
2014-Jul-24 17:33N 55°17' E 014°48'1 0.2
2014-Jul-24 11:18N 55°16' E 014°49'2 0.6
2014-Jul-24 07:21N 55°17' E 014°45'0 0.0
2014-Jul-24 06:24N 55°17' E 014°45'0 0.0
2014-Jul-24 05:33N 55°17' E 014°45'0 0.0
2014-Jul-24 04:33N 55°17' E 014°45'0 0.0
2014-Jul-24 03:30N 55°17' E 014°45'0 0.0
2014-Jul-24 02:30N 55°17' E 014°45'0 0.0
2014-Jul-24 01:33N 55°17' E 014°45'0 0.0
2014-Jul-24 00:33N 55°17' E 014°45'0 0.0
2014-Jul-23 23:33N 55°17' E 014°45'0 0.1
2014-Jul-23 22:34N 55°17' E 014°45'0 0.0
2014-Jul-23 20:31N 55°17' E 014°45'0 0.0
2014-Jul-23 19:09N 55°17' E 014°45'0 0.0
2014-Jul-23 08:18N 55°17' E 014°45'0 0.0
2014-Jul-23 00:07N 55°17' E 014°45'0 0.0
2014-Jul-22 22:25N 55°17' E 014°45'1 0.2
2014-Jul-22 19:04N 55°16' E 014°44'2 1.5
2014-Jul-22 17:30N 55°18' E 014°41'2 0.8
2014-Jul-22 15:12N 55°17' E 014°43'1 0.1
2014-Jul-22 06:21N 55°17' E 014°45'0 0.0
2014-Jul-22 00:12N 55°17' E 014°45'0 0.0
2014-Jul-21 22:24N 55°17' E 014°45'0 0.0
2014-Jul-21 21:30N 55°17' E 014°45'2 0.7
2014-Jul-21 18:30N 55°17' E 014°42'2 0.2
2014-Jul-21 05:32N 55°17' E 014°45'0 0.0
2014-Jul-21 04:29N 55°17' E 014°45'0 0.0
2014-Jul-21 03:18N 55°17' E 014°45'0 0.0
2014-Jul-21 02:30N 55°17' E 014°45'0 0.0
2014-Jul-21 01:30N 55°17' E 014°45'0 0.0
2014-Jul-21 00:30N 55°17' E 014°45'0 0.0
2014-Jul-20 23:33N 55°17' E 014°45'0 0.1
2014-Jul-20 21:27N 55°17' E 014°45'0 0.3
2014-Jul-20 20:32N 55°17' E 014°45'1 0.7
2014-Jul-20 19:33N 55°16' E 014°44'1 0.6
2014-Jul-20 18:26N 55°17' E 014°45'2 1.5
2014-Jul-20 17:21N 55°17' E 014°48'0 0.0
2014-Jul-20 16:27N 55°17' E 014°48'0 0.0
2014-Jul-20 15:27N 55°17' E 014°48'0 0.0
2014-Jul-20 14:33N 55°17' E 014°48'0 0.0
2014-Jul-20 13:27N 55°17' E 014°48'0 0.0
2014-Jul-20 12:33N 55°17' E 014°48'0 0.0
2014-Jul-20 11:21N 55°17' E 014°48'4 3.9
2014-Jul-20 10:24N 55°20' E 014°47'4 4.3
2014-Jul-20 09:32N 55°17' E 014°48'0 0.0
2014-Jul-20 08:32N 55°17' E 014°48'0 0.0
2014-Jul-20 07:26N 55°17' E 014°48'0 0.0
2014-Jul-20 05:20N 55°17' E 014°48'0 0.0
2014-Jul-20 04:26N 55°17' E 014°48'0 0.0
2014-Jul-20 03:26N 55°17' E 014°48'0 0.0
2014-Jul-20 02:32N 55°17' E 014°48'0 0.0
2014-Jul-20 01:32N 55°17' E 014°48'0 0.0
2014-Jul-20 00:32N 55°17' E 014°48'0 0.0
2014-Jul-19 23:32N 55°17' E 014°48'0 0.0
2014-Jul-19 22:26N 55°17' E 014°48'0 0.0
2014-Jul-19 21:32N 55°17' E 014°48'0 0.0
2014-Jul-19 20:32N 55°17' E 014°48'0 0.0
2014-Jul-19 19:26N 55°17' E 014°48'0 0.0
2014-Jul-19 18:32N 55°17' E 014°48'0 0.0
2014-Jul-19 17:21N 55°17' E 014°48'1 1.6
2014-Jul-19 16:33N 55°18' E 014°47'2 2.5
2014-Jul-19 15:33N 55°20' E 014°48'4 3.2
2014-Jul-19 14:25N 55°17' E 014°48'0 0.0
2014-Jul-19 13:25N 55°17' E 014°48'0 0.0
2014-Jul-19 12:31N 55°17' E 014°48'0 0.0
2014-Jul-19 11:31N 55°17' E 014°48'0 0.0
2014-Jul-19 10:31N 55°17' E 014°48'0 0.0
2014-Jul-19 09:31N 55°17' E 014°48'0 0.0
2014-Jul-19 08:31N 55°17' E 014°48'0 0.0
2014-Jul-19 07:25N 55°17' E 014°48'0 0.0
2014-Jul-19 06:31N 55°17' E 014°48'0 0.0
2014-Jul-19 05:31N 55°17' E 014°48'0 0.0
2014-Jul-19 04:31N 55°17' E 014°48'0 0.0
2014-Jul-19 03:31N 55°17' E 014°48'0 0.0
2014-Jul-19 02:31N 55°17' E 014°48'0 0.0
2014-Jul-19 01:31N 55°17' E 014°48'0 0.0
2014-Jul-19 00:31N 55°17' E 014°48'0 0.0
2014-Jul-18 23:31N 55°17' E 014°48'0 0.0
2014-Jul-18 22:31N 55°17' E 014°48'0 0.0
2014-Jul-18 21:31N 55°17' E 014°48'0 0.0
2014-Jul-18 20:25N 55°17' E 014°48'0 0.0
2014-Jul-18 19:31N 55°17' E 014°48'0 0.0
2014-Jul-18 18:13N 55°17' E 014°48'0 0.0
2014-Jul-18 17:31N 55°17' E 014°48'0 0.0
2014-Jul-18 16:31N 55°17' E 014°48'0 0.0
2014-Jul-18 15:30N 55°17' E 014°48'0 0.0
2014-Jul-18 14:30N 55°17' E 014°48'0 0.0
2014-Jul-18 13:30N 55°17' E 014°48'0 0.0
2014-Jul-18 12:30N 55°17' E 014°48'0 0.0
2014-Jul-18 11:30N 55°17' E 014°48'0 0.0
2014-Jul-18 10:30N 55°17' E 014°48'1 1.3
2014-Jul-18 09:31N 55°18' E 014°48'1 1.3
2014-Jul-18 08:33N 55°17' E 014°48'0 0.0
2014-Jul-18 07:33N 55°17' E 014°48'0 0.0
2014-Jul-18 06:33N 55°17' E 014°48'0 0.0
2014-Jul-18 05:33N 55°17' E 014°48'0 0.0
2014-Jul-18 04:32N 55°17' E 014°48'0 0.0
2014-Jul-18 03:26N 55°17' E 014°48'0 0.0
2014-Jul-18 02:32N 55°17' E 014°48'0 0.0
2014-Jul-18 01:32N 55°17' E 014°48'0 0.0
2014-Jul-18 00:20N 55°17' E 014°48'0 0.0
2014-Jul-17 23:32N 55°17' E 014°48'0 0.0
2014-Jul-17 22:32N 55°17' E 014°48'0 0.0
2014-Jul-17 21:32N 55°17' E 014°48'0 0.0
2014-Jul-17 20:32N 55°17' E 014°48'0 0.0
2014-Jul-17 19:26N 55°17' E 014°48'0 0.0
2014-Jul-17 18:26N 55°17' E 014°48'0 0.0
2014-Jul-17 17:28N 55°17' E 014°48'0 0.0
2014-Jul-17 16:22N 55°17' E 014°48'0 0.0
2014-Jul-17 15:28N 55°17' E 014°48'0 0.0
2014-Jul-17 14:34N 55°17' E 014°48'0 0.0
2014-Jul-17 13:34N 55°17' E 014°48'0 0.0
2014-Jul-17 12:31N 55°17' E 014°48'0 0.0
2014-Jul-17 11:25N 55°17' E 014°48'0 0.0
2014-Jul-17 10:31N 55°17' E 014°48'0 0.0
2014-Jul-17 09:25N 55°17' E 014°48'0 0.0
2014-Jul-17 08:31N 55°17' E 014°48'0 0.0
2014-Jul-17 07:25N 55°17' E 014°48'0 0.3
2014-Jul-17 06:33N 55°17' E 014°48'0 0.3
2014-Jul-17 05:33N 55°17' E 014°48'0 0.0
2014-Jul-17 04:33N 55°17' E 014°48'0 0.0
2014-Jul-17 03:33N 55°17' E 014°48'0 0.0
2014-Jul-17 02:09N 55°17' E 014°48'0 0.0
2014-Jul-17 01:33N 55°17' E 014°48'0 0.0
2014-Jul-17 00:15N 55°17' E 014°48'0 0.0
2014-Jul-16 23:33N 55°17' E 014°48'0 0.0
2014-Jul-16 22:33N 55°17' E 014°48'0 0.0
2014-Jul-16 21:33N 55°17' E 014°48'0 0.0
2014-Jul-16 20:33N 55°17' E 014°48'0 0.0
2014-Jul-16 19:31N 55°17' E 014°48'0 0.0
2014-Jul-16 18:31N 55°17' E 014°48'0 0.0
2014-Jul-16 17:13N 55°17' E 014°48'0 0.0
2014-Jul-16 15:31N 55°17' E 014°48'0 0.0
2014-Jul-16 14:31N 55°17' E 014°48'0 0.0
2014-Jul-16 13:25N 55°17' E 014°48'0 0.0
2014-Jul-16 12:19N 55°17' E 014°48'0 0.0
2014-Jul-16 11:19N 55°17' E 014°48'0 0.0
2014-Jul-16 10:31N 55°17' E 014°48'0 0.0
2014-Jul-16 09:31N 55°17' E 014°48'0 0.0
2014-Jul-16 08:31N 55°17' E 014°48'0 0.0
2014-Jul-16 07:25N 55°17' E 014°48'0 0.0
2014-Jul-16 05:25N 55°17' E 014°48'0 0.0
2014-Jul-16 04:31N 55°17' E 014°48'0 0.0
2014-Jul-16 03:25N 55°17' E 014°48'0 0.0
2014-Jul-16 02:31N 55°17' E 014°48'4 3.7
2014-Jul-16 01:34N 55°19' E 014°53'4 3.6
2014-Jul-16 00:33N 55°17' E 014°48'0 0.0
2014-Jul-15 23:33N 55°17' E 014°48'0 0.0
2014-Jul-15 22:32N 55°17' E 014°48'0 0.0
2014-Jul-15 21:23N 55°17' E 014°48'0 0.0
2014-Jul-15 20:29N 55°17' E 014°48'0 0.0
2014-Jul-15 19:29N 55°17' E 014°48'0 0.0
2014-Jul-15 18:29N 55°17' E 014°48'0 0.0
2014-Jul-15 17:29N 55°17' E 014°48'0 0.0
2014-Jul-15 16:17N 55°17' E 014°48'0 0.0
2014-Jul-15 14:29N 55°17' E 014°48'0 0.0
2014-Jul-15 13:23N 55°17' E 014°48'0 0.0
2014-Jul-15 12:29N 55°17' E 014°48'0 0.0
2014-Jul-15 11:29N 55°17' E 014°48'0 0.0
2014-Jul-15 10:23N 55°17' E 014°48'0 0.0
2014-Jul-15 09:23N 55°17' E 014°48'0 0.0
2014-Jul-15 08:23N 55°17' E 014°48'0 0.0
2014-Jul-15 07:29N 55°17' E 014°48'0 0.0
2014-Jul-15 06:17N 55°17' E 014°48'0 0.0
2014-Jul-15 04:29N 55°17' E 014°48'0 0.0
2014-Jul-15 03:23N 55°17' E 014°48'  

Dump ship's entire track history